Location: Martz Observatory
(42.0083°N, 79.0667°W)
Time: 01:22:59
(UTC-04:00)

Meteor 1-23 Rocket - Visible Passes

Search period start: 27 July 2016 00:00
Search period end: 06 August 2016 00:00
Orbit: 838 x 888 km, 81.3° (Epoch: 26 July)

Date Brightness Start Highest point End Pass type
(mag) Time Alt. Az. Time Alt. Az. Time Alt. Az.
27 Jul 4.4 00:46:37 10° NNW 00:51:57 59° W 00:51:57 59° W visible
27 Jul 5.9 22:56:20 10° NNE 23:00:08 18° ENE 23:01:25 17° E visible
28 Jul 4.4 00:38:18 10° NNW 00:43:41 60° W 00:43:41 60° W visible
28 Jul 5.9 22:48:02 10° NNE 22:51:48 18° ENE 22:53:09 17° E visible
29 Jul 4.4 00:29:58 10° NNW 00:35:25 61° W 00:35:25 61° W visible
29 Jul 5.9 22:39:44 10° NNE 22:43:28 18° ENE 22:44:53 16° E visible
30 Jul 4.3 00:21:39 10° NNW 00:27:08 62° W 00:27:09 62° W visible
30 Jul 5.9 22:31:26 10° NNE 22:35:09 18° ENE 22:36:39 16° E visible
31 Jul 4.3 00:13:19 10° NNW 00:18:49 63° W 00:18:55 62° WSW visible
31 Jul 5.9 22:23:08 10° NNE 22:26:48 18° ENE 22:28:25 16° E visible
01 Aug 4.3 00:05:00 10° NNW 00:10:29 63° W 00:10:42 63° WSW visible
01 Aug 5.9 22:14:50 10° NNE 22:18:28 17° ENE 22:20:13 15° E visible
01 Aug 4.3 23:56:40 10° NNW 00:02:10 64° W 00:02:29 63° WSW visible
02 Aug 5.9 22:06:32 10° NNE 22:10:09 17° ENE 22:12:02 15° E visible
02 Aug 4.3 23:48:20 10° NNW 23:53:50 65° W 23:54:18 62° WSW visible
03 Aug 5.9 21:58:15 10° NNE 22:01:49 17° ENE 22:03:51 14° E visible
03 Aug 4.3 23:40:01 10° NNW 23:45:31 65° W 23:46:07 61° SW visible
04 Aug 5.9 21:49:57 10° NNE 21:53:29 17° ENE 21:55:41 14° E visible
04 Aug 4.3 23:31:41 10° NNW 23:37:12 66° W 23:37:58 59° SW visible
05 Aug 5.9 21:41:38 10° NNE 21:45:09 17° ENE 21:47:33 13° E visible
05 Aug 4.3 23:23:21 10° NNW 23:28:53 67° W 23:29:50 56° SW visible
